Regional Weather Roundup
Issued by NWS

Home | Current Version | Previous Version | Text Only | Print | Product List | Glossary On
Versions: 1 2 3 4 5 6 7 8 9 10 11 12 13 14 15 16 17 18 19 20 21 22 23 24 25 26 27 28 29 30 31 32 33 34 35 36 37 38 39 40 41 42 43 44 45 46 47 48 49 50
383
ASUS43 KLSX 111510
RWRMO

WEATHER SUMMARY FOR MISSOURI
NATIONAL WEATHER SERVICE SPRINGFIELD MO
900 AM CST THU FEB 11 2016

NOTE: "FAIR" INDICATES FEW OR NO CLOUDS BELOW 12,000 FEET WITH NO
       SIGNIFICANT WEATHER AND/OR OBSTRUCTIONS TO VISIBILITY.
       CURRENT SKY AND/OR WEATHER CONDITIONS ARE NOT AVAILABLE FOR
       CHILLICOTHE AND FARMINGTON.

MOZ001>031-035>038-043-044-053-054-111600-
...NORTHERN AND WESTERN MISSOURI...

CITY           SKY/WX    TMP DP  RH WIND       PRES   REMARKS
KANSAS CTY INT PTSUNNY   23  19  85 CALM      30.29R
KANSAS C DTWN  CLOUDY    26  20  77 E10       30.30R WCI  16
LEE`S SUMMIT   CLOUDY    25  20  81 E9        30.29R WCI  15
ST JOSEPH      SUNNY     23  16  74 E8        30.34R WCI  14
CHILLICOTHE      N/A     22  13  68 NE8       30.34R WCI  12
KIRKSVILLE     CLOUDY    15   5  64 NE8       30.33R WCI   4

$$
MOZ066>068-077>081-088>096-101>105-111600-
...SOUTHWEST MISSOURI...

CITY           SKY/WX    TMP DP  RH WIND       PRES   REMARKS
SPRINGFIELD    SUNNY     29  15  56 NE7       30.19R WCI  22
JOPLIN         SUNNY     29  20  69 NE9       30.22R WCI  20

$$
MOZ032>034-039>042-045>050-055>058-069>072-111600-
...CENTRAL MISSOURI...

CITY           SKY/WX    TMP DP  RH WIND       PRES   REMARKS
COLUMBIA       CLOUDY    22  14  71 NE10      30.30R WCI  11
JEFFERSON CITY CLOUDY    25  17  72 VRB6      30.32R WCI  18
ROLLA          PTSUNNY   24  20  84 NE12      30.24R WCI  13
SEDALIA        CLOUDY    25  18  74 NE12      30.30R WCI  14
WHITEMAN AFB   PTSUNNY   25  20  82 E10       30.29R WCI  15
WARRENSBURG    CLOUDY    27  21  80 NE10      30.30R WCI  17
OSAGE BEACH    SUNNY     27  18  69 NE9       30.27S WCI  17

$$
MOZ051-052-059>065-111600-
...EAST CENTRAL MISSOURI...

CITY           SKY/WX    TMP DP  RH WIND       PRES   REMARKS
ST LOUIS INTL  CLOUDY    23  16  74 NE6       30.33R WCI  16
SPIRIT OF STL  CLOUDY    23  17  78 E7        30.33R WCI  15
ST CHARLES     CLOUDY    22  13  68 NE7       30.34R WCI  13

$$
MOZ072>076-082>087-097>100-106>115-111600-
...SOUTH CENTRAL AND SOUTHEAST MISSOURI...

CITY           SKY/WX    TMP DP  RH WIND       PRES   REMARKS
CAPE GIRARDEAU CLOUDY    27  20  75 NE13      30.29R WCI  16
FARMINGTON     CLOUDY    24  20  84 NE8       30.29R WCI  15
POPLAR BLUFF   SUNNY     30  20  66 NE15      30.25R WCI  19
WEST PLAINS    SUNNY     28  13  53 E7        30.21R WCI  21

$$




USA.gov is the U.S. government's official web portal to all federal, state and local government web resources and services.